Weather in Staryye Zyattsy

Russia / Udmurt Republic     57°20′51″N   52°38′48″E
temp.,
°C
wind,
m/s
gust,
m/s
humid.,
%
clouds,
%
prec.,
mm/h
press.,
hPa
HPBL,
m
15 april, thu
thu1501:00+7s24925 0.0 102458
04:00+7ssw249240 0.0 102467
07:00+6s259322 0.0 1023101
10:00+13ssw36805 0.0 1021428
13:00+16sw47660 0.0 10201030
16:00+17wsw36600 0.0 10191448
19:00+11wnw11875 0.2 101915
22:00+9nne499693 0.3 1021373
16 april, fri
fri1601:00+5ne51290100 0.4 1023516
04:00+4ne5118690 1.5 1025550
07:00+4ne51180100 0.0 1026622
10:00+5ene595932 0.0 1027674
13:00+9ene56430 0.0 1027992
16:00+9ne45410 0.0 10271082
19:00+6ne37570 0.0 1028208
22:00+2ne39700 0.0 1029196
17 april, sat
sat1701:00+1ne39750 0.0 1029188
04:000ne28770 0.0 1030159
07:00+2ne27685 0.0 1030223
10:00+7ne34485 0.0 1030957
13:00+9nne33425 0.0 10281444
16:00+10n34419 0.0 10271625
19:00+7nnw22585 0.0 102724
22:00+4nnw22725 0.0 102723
18 april, sun
sun1801:00+2nnw22781 0.0 102623
04:00+1nw23840 0.0 102666
07:00+3nnw28770 0.0 1025260
10:00+7n466034 0.0 10251115
13:00+5nne465582 0.0 10271351
16:00+6ne56345 0.0 10281769
19:00+4ne48425 0.0 1030748
22:00+1ene39572 0.0 1032444
19 april, mon
mon1901:00−1ene410603 0.0 1033430
04:00−1ene39671 0.0 1035431
07:000e48510 0.0 1036601
10:00+3e46290 0.0 10361432
13:00+5e45250 0.0 10351606
16:00+5e44280 0.0 10341616
19:00+2e24430 0.0 103480
22:00−1ene22540 0.0 103527